Temp
-16 -16 -16 -16 -16 -16 -16 -17 -17 -18 -18 -19 -18 -19 -18 -18 -19 -19 -18 -18 -19 -19 -19 -19 -19 -19 -18
-17 -16 -16 -16 -16 -16 -16 -16 -17 -17 -18 -19 -19 -19 -19 -19 -19 -19 -19 -19 -18 -19 -19 -19 -19 -19 -19
-17 -17 -16 -16 -16 -16 -16 -17 -17 -17 -18 -18 -18 -19 -19 -19 -19 -19 -19 -19 -19 -19 -19 -19 -19 -19 -19
-17 -16 -16 -16 -16 -16 -16 -17 -17 -17 -17 -17 -18 -18 -19 -19 -19 -19 -19 -19 -19 -19 -19 -19 -19 -19 -21
-17 -16 -16 -17 -17 -16 -16 -17 -17 -17 -17 -17 -18 -18 -19 -19 -19 -19 -19 -19 -19 -19 -20 -19 -19 -20 -22
-16 -16 -16 -16 -17 -17 -17 -17 -17 -17 -17 -17 -18 -18 -19 -19 -19 -19 -19 -19 -19 -20 -19 -19 -20 -22 -23
-18 -17 -17 -17 -17 -17 -17 -17 -17 -17 -17 -17 -18 -18 -19 -19 -19 -19 -19 -19 -20 -20 -19 -20 -22 -23 -24
-19 -18 -17 -17 -16 -17 -17 -17 -17 -17 -18 -18 -18 -19 -19 -19 -19 -19 -19 -20 -20 -20 -20 -21 -23 -24 -25
-18 -17 -17 -17 -17 -17 -17 -17 -17 -17 -17 -18 -18 -19 -19 -19 -19 -19 -19 -20 -20 -20 -21 -23 -24 -24 -25
-18 -17 -17 -17 -17 -16 -17 -17 -17 -17 -18 -18 -18 -18 -19 -19 -19 -19 -20 -20 -20 -21 -23 -24 -24 -25 -26
-18 -18 -17 -17 -17 -17 -17 -16 -17 -18 -18 -18 -19 -19 -19 -19 -20 -20 -21 -20 -21 -22 -23 -24 -24 -25 -26
-18 -18 -17 -17 -17 -17 -17 -17 -17 -18 -18 -19 -19 -19 -19 -20 -20 -21 -20 -20 -22 -24 -24 -25 -26 -25 -26
-17 -17 -18 -17 -17 -17 -17 -17 -17 -18 -18 -19 -18 -19 -19 -20 -21 -20 -21 -22 -23 -24 -25 -25 -26 -26 -26
-18 -18 -17 -18 -17 -17 -18 -18 -18 -18 -18 -19 -19 -19 -20 -20 -20 -21 -22 -23 -24 -25 -26 -26 -26 -26 -26
-18 -17 -17 -18 -18 -18 -18 -18 -18 -19 -19 -19 -19 -20 -20 -20 -21 -22 -24 -24 -24 -25 -26 -26 -25 -26 -27
-18 -17 -18 -18 -18 -18 -18 -18 -19 -18 -19 -19 -19 -20 -20 -20 -21 -23 -24 -24 -24 -24 -25 -26 -25 -25 -26
-18 -18 -17 -18 -18 -18 -18 -18 -19 -19 -19 -19 -20 -20 -21 -22 -23 -23 -24 -24 -24 -24 -24 -25 -25 -25 -25
Height
5579 5575 5572 5569 5565 5561 5559 5557 5555 5553 5552 5550 5546 5544 5542 5538 5532 5526 5520 5513 5507 5500 5492 5483 5473 5464 5456
5564 5560 5557 5556 5553 5550 5548 5546 5544 5542 5540 5538 5535 5532 5529 5525 5519 5513 5506 5499 5493 5485 5475 5467 5457 5448 5437
5551 5545 5542 5542 5538 5536 5536 5533 5531 5529 5527 5526 5523 5519 5515 5510 5504 5498 5493 5486 5479 5470 5459 5450 5442 5431 5419
5530 5529 5529 5528 5525 5523 5522 5520 5518 5517 5516 5514 5511 5506 5502 5497 5490 5484 5479 5471 5463 5454 5444 5435 5425 5414 5403
5514 5513 5514 5513 5511 5510 5508 5507 5505 5505 5503 5502 5499 5494 5488 5483 5478 5471 5464 5456 5448 5438 5428 5419 5408 5398 5389
5493 5499 5500 5500 5498 5496 5494 5493 5493 5492 5490 5489 5486 5481 5475 5470 5464 5458 5449 5441 5432 5423 5414 5403 5392 5383 5375
5481 5482 5485 5487 5485 5483 5482 5480 5480 5479 5477 5476 5474 5468 5462 5457 5452 5444 5436 5427 5418 5408 5398 5388 5378 5370 5362
5464 5467 5469 5469 5462 5470 5469 5468 5467 5468 5467 5465 5461 5456 5451 5445 5438 5430 5422 5413 5403 5393 5383 5373 5365 5357 5349
5449 5454 5453 5453 5454 5456 5457 5457 5455 5456 5456 5453 5449 5444 5439 5432 5424 5417 5408 5399 5388 5378 5369 5360 5353 5346 5336
5433 5437 5437 5439 5442 5444 5445 5444 5443 5443 5443 5442 5437 5432 5426 5418 5410 5404 5394 5385 5374 5365 5357 5349 5342 5334 5324
5421 5423 5424 5426 5429 5429 5431 5430 5434 5434 5432 5429 5425 5419 5413 5405 5397 5389 5380 5371 5361 5353 5345 5336 5329 5321 5313
5408 5410 5413 5414 5417 5419 5420 5421 5424 5424 5421 5417 5413 5408 5400 5392 5383 5374 5365 5357 5349 5341 5332 5324 5317 5311 5307
5398 5401 5403 5404 5405 5407 5411 5413 5413 5413 5409 5406 5402 5396 5388 5379 5369 5361 5351 5343 5335 5326 5318 5313 5308 5304 5299
5386 5390 5392 5397 5398 5400 5401 5403 5403 5402 5399 5395 5390 5383 5375 5366 5357 5347 5341 5333 5323 5317 5311 5305 5300 5296 5291
5378 5383 5385 5389 5391 5392 5393 5394 5393 5392 5389 5384 5377 5370 5362 5354 5346 5338 5329 5322 5315 5307 5302 5297 5292 5289 5285
5370 5373 5377 5381 5384 5385 5385 5385 5384 5383 5378 5373 5366 5359 5350 5343 5336 5328 5319 5311 5303 5298 5294 5290 5285 5281 5277
5363 5365 5369 5374 5378 5379 5378 5378 5376 5373 5368 5363 5356 5348 5340 5331 5324 5318 5307 5300 5295 5290 5286 5280 5276 5272 5270
Wind_Speed
58 57 56 58 51 47 49 50 51 45 46 47 51 52 51 49 50 53 55 59 58 59 60 59 59 61 64
55 56 57 57 51 47 51 52 54 50 47 48 52 52 49 50 52 54 57 60 58 59 59 59 60 63 65
52 54 59 58 57 49 47 50 50 49 47 50 47 47 48 49 52 55 59 58 59 59 58 59 62 64 65
53 59 54 59 55 53 51 48 51 51 52 46 44 46 45 49 52 56 59 57 58 59 58 59 62 65 61
55 56 56 54 54 53 48 47 48 53 54 46 42 45 45 49 52 56 57 57 58 58 58 61 62 61 51
52 56 55 56 50 50 49 50 48 50 55 46 44 45 47 50 53 55 57 57 57 58 60 61 61 52 49
59 55 54 51 51 46 48 44 43 45 53 51 48 48 50 52 53 55 57 57 57 59 60 59 54 49 47
57 54 50 53 49 45 47 41 38 42 44 45 45 46 52 52 53 56 56 55 56 59 58 55 49 48 46
44 46 46 49 47 44 47 43 37 40 42 42 43 48 50 52 55 55 54 54 56 56 54 48 48 46 46
43 43 43 43 43 38 43 37 36 41 42 37 43 49 51 54 54 54 51 54 55 52 47 47 47 47 46
41 39 41 39 41 41 38 39 36 35 43 40 41 45 50 54 53 50 51 54 51 46 45 45 46 40 37
39 38 34 36 32 36 28 36 31 32 40 36 46 53 53 52 49 49 52 53 45 42 43 45 36 33 26
32 25 20 24 24 27 22 27 32 34 35 38 47 52 50 49 46 50 51 47 43 42 44 38 30 31 26
27 23 15 22 16 23 24 24 30 38 38 44 48 48 47 45 48 48 43 40 42 44 36 30 29 25 25
21 21 23 21 22 26 24 25 29 31 39 43 45 46 46 47 47 40 39 42 42 36 27 28 26 24 21
19 16 21 24 19 22 23 25 28 36 40 43 46 45 46 47 42 37 40 40 33 27 26 25 25 23 23
19 16 19 21 17 20 24 28 31 36 40 44 42 42 43 40 40 41 39 30 27 27 27 29 31 28 23
Wind_Direction
294 292 298 292 283 280 284 283 279 277 279 281 284 287 292 294 293 294 297 299 299 303 305 306 308 309 311
286 289 291 292 283 276 281 281 277 280 277 278 281 284 290 292 293 297 300 301 302 304 308 309 310 310 311
284 289 286 284 285 279 278 278 270 274 277 282 283 284 287 292 296 300 302 302 307 308 309 311 311 311 310
281 284 287 281 283 282 276 277 269 269 276 282 284 286 292 296 299 302 304 306 308 309 312 312 312 310 309
277 284 280 284 278 281 277 277 271 269 274 279 289 292 292 296 298 301 304 308 309 311 312 312 311 310 309
283 282 280 284 277 281 279 274 269 272 276 274 296 293 294 296 298 302 306 309 311 312 312 312 310 309 308
264 275 282 280 278 277 273 275 271 273 276 274 291 292 294 295 300 304 308 310 312 312 312 311 309 308 308
271 275 274 274 267 275 267 277 275 272 272 277 288 285 293 295 301 307 308 311 312 311 312 310 306 307 307
272 266 278 272 270 264 263 271 282 276 278 279 285 292 295 298 302 307 309 311 310 311 310 306 306 308 306
273 267 272 267 263 266 265 279 270 269 279 285 281 291 296 301 306 306 311 310 311 311 307 306 309 310 306
264 274 268 261 259 264 260 278 279 261 278 273 295 302 301 306 305 309 311 312 312 309 309 312 314 311 313
272 268 266 259 256 266 263 254 263 287 287 274 291 302 305 306 308 313 313 313 311 310 313 315 314 313 309
261 269 276 263 270 260 259 269 268 286 285 284 292 302 305 306 313 314 313 311 312 316 318 314 307 309 307
263 260 252 270 264 249 266 272 274 280 285 293 301 305 306 314 315 312 310 311 316 316 312 306 303 299 302
247 240 243 260 261 250 271 271 278 282 296 303 307 307 313 316 312 312 311 313 314 311 307 306 306 301 288
217 216 243 250 275 272 275 290 283 290 303 308 309 311 316 314 312 310 314 315 313 313 309 306 305 309 308
225 227 216 231 266 276 274 286 293 305 306 308 310 317 314 312 311 318 315 314 309 307 307 303 302 300 296